Skip Navigation Links weather.gov 
NOAA logo-Select to go to the NOAA homepage NDBC Title GraphicClick to go to NDBC home page   Select to go to the NWS homepage
Home About Us Contact Us
 
 
    
    Station List

 Data Access
    Mobile Access
    Classic Maps
         Recent
         DART®
    Obs Search
    Ship Obs Report
    BuoyCAMs
    TAO
    DODS
    OceanSITES
    HF Radar
    OSMC
    Dial-A-Buoy
    RSS Feeds Image indicating link to RSS feed access page
    Web Widget
    Email Access
    Web Data Guide
    Maintenance Schedule
    Station Status Report

 Program Info
    TAO
    DART®
    IOOS®

 Publications
    NDBC PEA
    NDBC FONSI
    NDBC DQC Handbook

 FAQ
 Visitor Information
 
USA.gov is the U.S. government's official web portal to all federal, state and local government web resources and services.

Hurricane Symbol Storm Special! View the latest observations near East Pacific Tropical Storm Tara.

Station MVXA2 - Mendenhall Valley, AK Image indicating link to RSS feed of recent meteorological observations for station MVXA2

Owned and maintained by Marine Exchange of Alaska
C-MAN Station
58.364 N 134.606 W (58°21'51" N 134°36'21" W)

Site elevation: 7.6 m above mean sea level
Air temp height: 11.9 m above site elevation
Anemometer height: 11.9 m above site elevation
Barometer elevation: 19.5 m above mean sea level

Search And Rescue (SAR) Data

Meteorological Observations from Nearby Stations and Ships Image indicating link to RSS feed of recent meteorological observations near station MVXA2

Large icon indicates selected station.
yellow diamond Stations with recent data
red diamond Stations with no data in last 8 hours
     (24 hours for tsunami stations)


Conditions at MVXA2 as of
(6:42 am AKDT)
1442 GMT on 10/15/2018:
     

Click on the graph icon in the table below to see a time series plot of the last five days of that observation.

5-day plot - Wind Direction Wind Direction (WDIR): SE ( 130 deg true )
5-day plot - Wind Speed Wind Speed (WSPD): 16 kts
5-day plot - Wind Gust Wind Gust (GST): 29 kts
5-day plot - Atmospheric Pressure Atmospheric Pressure (PRES): 30.12 in
5-day plot - Air Temperature Air Temperature (ATMP): 46.6 °F
5-day plot - Dew Point Dew Point (DEWP): 42.6 °F
5-day plot - Wind Chill Wind Chill (CHILL): 39.4 °F
5-day plot - Wind Speed at 10 Meters Wind Speed at 10 meters (WSPD10M): 16 kts
5-day plot - Wind Speed at 10 Meters Wind Speed at 20 meters (WSPD20M): 17 kts
5-day plot - Wind Speed, Wind Gust and Atmospheric Pressure Combined plot of Wind Speed, Gust, and Air Pressure
Previous observations
5-day plot - Wind Direction 5-day plot - Wind Speed 5-day plot - Wind Gust 5-day plot - Wave Height 5-day plot - Dominant Wave Period 5-day plot - Average Period 5-day plot - Mean Wave Direction 5-day plot - Atmospheric Pressure 5-day plot - Pressure Tendency 5-day plot - Air Temperature 5-day plot - Water Temperature 5-day plot - Dew Point 5-day plot - Salinity 5-day plot - Visibility 5-day plot - Tide (above MLLW)
MM DD TIME
(AKDT)
WDIR WSPD
kts
GST
kts
WVHT
ft
DPD
sec
APD
sec
MWD PRES
in
PTDY
in
ATMP
°F
WTMP
°F
DEWP
°F
SAL
psu
VIS
nmi
TIDE
ft
1015 6:33 am SE 12 25----30.12- 46.6- 42.6---
1015 6:22 am SE 18 26----30.11- 46.6- 42.6---
1015 6:12 am SE 20 38----30.11- 46.8- 42.6---
1015 6:02 am SE 16 28----30.11- 46.9- 42.8---
1015 5:52 am SE 14 24----30.11- 46.8- 42.8---
1015 5:42 amESE 15 29----30.10- 46.9- 42.8---
1015 5:32 amESE 14 27----30.11- 47.1- 43.0---
1015 5:22 amESE 13 21----30.10- 47.1- 43.2---
1015 5:12 amESE 14 40----30.11- 47.1- 43.2---
1015 5:02 am SE 14 27----30.11- 47.1- 43.2---
1015 4:52 am SE 13 24----30.10- 47.1- 43.0---
1015 4:42 am SE 14 25----30.10- 47.1- 43.2---
1015 4:32 am SE 14 28----30.10- 47.1- 43.3---
1015 4:22 am SE 13 27----30.10- 47.1- 43.2---
1015 4:12 am SE 16 26----30.10- 47.3- 43.2---
1015 4:02 am SE 16 29----30.09- 47.1- 43.2---
1015 3:52 am SE 13 28----30.09- 47.1- 43.2---
1015 3:42 am SE 11 22----30.09- 47.1- 43.2---
1015 3:33 am SE 13 27----30.09- 47.1- 43.2---
1015 3:22 am SE 13 28----30.08- 47.1- 43.5---
1015 3:12 am SE 15 27----30.09- 47.1- 43.3---
1015 3:02 am SE 14 28----30.09- 47.1- 43.3---
1015 2:52 amESE 15 31----30.08- 47.1- 43.3---
1015 2:42 amESE 19 37----30.08- 46.9- 43.2---
1015 2:32 am SE 15 31----30.08- 46.9- 43.0---
1015 2:22 am SE 11 34----30.08- 47.3- 43.3---
1015 2:12 am SE 11 24----30.08- 47.3- 43.3---
1015 2:02 am SE 12 48----30.08- 47.3- 43.5---
1015 1:52 am SE 15 35----30.07- 47.3- 43.3---
1015 1:42 am SE 16 30----30.06- 47.3- 43.3---
1015 1:32 am SE 14 25----30.06- 47.5- 43.7---
1015 1:22 amESE 15 31----30.05- 47.7- 43.7---
1015 1:12 amESE 15 26----30.04- 47.7- 43.5---
1015 1:02 am SE 13 22----30.06- 47.7- 43.7---
101512:53 amESE 13 27----30.06- 47.8- 43.7---
101512:42 amESE 15 25----30.05- 47.8- 43.7---
101512:33 amESE 13 23----30.06- 47.8- 43.7---
101512:22 amESE 15 30----30.05- 47.8- 43.5---
101512:12 amESE 16 30----30.06- 47.8- 43.5---
101512:02 amESE 15 27----30.06- 48.0- 43.7---
101411:52 pmESE 18 30----30.05- 47.8- 43.5---
101411:42 pmESE 16 30----30.05- 48.0- 43.7---
101411:32 pmESE 16 29----30.06- 48.0- 43.7---
101411:22 pmESE 17 26----30.05- 47.8- 43.7---
101411:12 pmESE 16 28----30.06- 48.0- 43.7---
101411:02 pmESE 15 25----30.06- 48.2- 43.5---
101410:52 pmESE 16 27----30.06- 48.2- 43.5---
101410:42 pmESE 18 31----30.06- 48.2- 43.3---
101410:32 pmESE 18 33----30.05- 48.4- 43.5---
101410:22 pmESE 17 35----30.05- 48.7- 43.5---
101410:12 pmESE 16 29----30.05- 49.1- 43.5---
101410:02 pmESE 19 30----30.05- 49.3- 43.7---
1014 9:52 pmESE 18 35----30.04- 49.3- 43.7---
1014 9:42 pmESE 17 30----30.05- 49.5- 43.7---
1014 9:32 pmESE 19 30----30.05- 49.6- 43.7---
1014 9:22 pmESE 21 31----30.05- 49.6- 43.7---
1014 9:12 pmESE 14 27----30.05- 49.6- 43.9---
1014 9:02 pmESE 19 29----30.04- 49.3- 43.7---
1014 8:52 pmESE 18 28----30.04- 49.1- 43.7---
1014 8:42 pmESE 16 30----30.04- 48.9- 43.5---
1014 8:32 pmESE 15 28----30.03- 48.7- 43.5---
1014 8:22 pmESE 13 24----30.03- 48.7- 43.7---
1014 8:12 pmESE 15 26----30.03- 48.7- 43.5---
1014 8:02 pmESE 14 25----30.03- 48.7- 43.5---
1014 7:52 pmESE 14 26----30.03- 48.6- 43.5---
1014 7:42 pmESE 15 26----30.03- 48.4- 43.5---
1014 7:32 pmESE 14 24----30.03- 48.6- 43.7---
1014 7:22 pmESE 15 26----30.03- 48.6- 43.7---
1014 7:12 pmESE 13 25----30.04- 48.6- 44.1---
1014 7:02 pmESE 13 25----30.04- 48.6- 44.1---
1014 6:52 pmESE 14 28----30.04- 48.4- 44.1---
1014 6:42 pmESE 17 28----30.03- 48.2- 43.9---
1014 6:33 pmESE 15 28----30.03- 48.2- 44.1---
1014 6:22 pmESE 14 26----30.02- 48.2- 44.2---
1014 6:12 pmESE 13 25----30.03- 48.0- 44.1---
1014 6:02 pmESE 13 27----30.03- 48.2- 44.2---
1014 5:53 pm E 13 22----30.03- 48.2- 44.2---
1014 5:42 pmESE 14 24----30.03- 48.0- 44.2---
1014 5:32 pmESE 14 27----30.02- 47.8- 44.1---
1014 5:22 pmESE 12 22----30.03- 47.8- 44.1---
1014 5:12 pmESE 14 25----30.03- 47.7- 43.9---
1014 5:02 pmESE 15 26----30.03- 47.7- 43.7---
1014 4:52 pmESE 12 22----30.04- 47.8- 43.9---
1014 4:42 pmESE 14 23----30.04- 48.0- 43.9---
1014 4:33 pmESE 14 25----30.03- 48.0- 43.9---
1014 4:22 pmESE 14 23----30.03- 48.0- 43.9---
1014 4:12 pmESE 14 30----30.04- 47.8- 43.7---
1014 3:53 pmESE 18 29----30.03- 47.7- 43.7---
1014 3:42 pmESE 18 27----30.04- 47.7- 43.5---
1014 3:33 pmESE 16 24----30.04- 47.7- 43.5---
1014 3:22 pmESE 15 26----30.04- 47.7- 43.5---
1014 3:12 pm E 15 27----30.04- 47.5- 43.3---
1014 3:02 pm E 13 21----30.05- 47.7- 43.5---
1014 2:53 pmESE 15 29----30.05- 47.7- 43.5---
1014 2:42 pmESE 13 23----30.06- 47.7- 43.7---
1014 2:33 pmESE 14 24----30.06- 47.7- 43.5---
1014 2:22 pm E 14 27----30.06- 47.7- 43.5---
1014 2:12 pm E 13 22----30.06- 47.5- 43.3---
1014 2:02 pmESE 15 27----30.05- 47.5- 43.3---
1014 1:52 pmESE 14 25----30.05- 47.7- 43.5---
1014 1:42 pmESE 14 26----30.05- 47.8- 43.5---
1014 1:32 pmESE 13 24----30.06- 47.7- 43.5---
1014 1:22 pmESE 13 21----30.06- 47.7- 43.5---
1014 1:13 pmESE 14 23----30.06- 47.7- 43.5---
1014 1:02 pmESE 13 23----30.06- 47.5- 43.3---
101412:53 pm E 13 24----30.06- 47.3- 43.2---
101412:43 pm E 14 25----30.06- 47.5- 43.3---
101412:32 pmESE 13 25----30.06- 47.3- 43.3---
101412:22 pmESE 14 22----30.05- 47.1- 43.2---
101412:12 pmESE 13 22----30.06- 46.9- 43.0---
101412:02 pmESE 14 27----30.05- 47.1- 43.2---
101411:52 amESE 13 23----30.05- 46.9- 43.0---
101411:42 amESE 12 23----30.05- 47.1- 43.0---
101411:32 amESE 13 23----30.05- 46.8- 42.8---
101411:22 am E 13 22----30.05- 46.8- 42.8---
101411:12 amESE 13 24----30.06- 46.8- 42.8---
101411:02 amESE 12 22----30.06- 46.9- 42.8---
101410:52 amESE 14 26----30.06- 46.8- 42.6---
101410:42 amESE 12 22----30.06- 46.8- 43.0---
101410:32 amESE 13 24----30.06- 46.8- 42.6---
101410:22 amESE 13 23----30.06- 46.8- 42.6---
101410:12 amESE 13 29----30.05- 46.6- 42.6---
101410:02 amESE 14 23----30.04- 46.4- 42.4---
1014 9:52 amESE 14 25----30.04- 46.2- 42.3---
1014 9:42 am E 15 28----30.04- 46.6- 42.6---
1014 9:32 amESE 13 26----30.04- 46.4- 42.6---
1014 9:22 amESE 13 23----30.04- 46.4- 42.6---
1014 9:12 amESE 15 31----30.04- 46.4- 42.6---
1014 9:02 amESE 14 29----30.04- 46.4- 42.6---
1014 8:52 amESE 15 27----30.05- 46.2- 42.4---
1014 8:42 amESE 15 27----30.04- 46.0- 42.3---
1014 8:32 amESE 15 25----30.04- 46.4- 42.4---
1014 8:22 amESE 16 27----30.03- 46.4- 42.3---
1014 8:12 amESE 16 28----30.03- 46.4- 41.9---
1014 8:02 am E 15 31----30.03- 46.4- 41.9---
1014 7:52 amESE 14 28----30.03- 46.4- 41.7---
1014 7:42 amESE 16 29----30.02- 46.4- 41.9---
1014 7:32 amESE 17 32----30.01- 46.2- 41.9---
1014 7:22 amESE 18 33----30.02- 46.0- 41.9---
1014 7:12 amESE 17 28----30.03- 46.0- 41.9---
1014 7:03 amESE 16 27----30.03- 46.0- 41.9---
1014 6:52 amESE 16 25----30.03- 46.2- 41.9---
1014 6:42 amESE 15 28----30.04- 46.2- 41.9---
1014 6:32 amESE 15 25----30.03- 46.4- 41.9---
1014 6:22 am E 15 27----30.04- 46.4- 41.7---
1014 6:12 amESE 17 28----30.04- 46.4- 41.5---
1014 6:02 amESE 19 31----30.03- 46.6- 41.5---
1014 5:52 amESE 17 32----30.03- 46.8- 41.5---

Description of Measurements

Links which are specific to this station are listed below:

Real Time Data in tabular form for the last forty-five days.

Historical Data & Climatic Summaries for quality controlled data for the current month, previous months, and previous years.